Miscellaneous Local Product
Issued by NWS North Platte, NE

Home | Current Version | Previous Version | Graphics & Text | Print | Product List | Glossary On
Versions: 1 2 3 4 5 6 7 8 9 10 11 12 13 14 15 16 17 18 19 20 21 22 23 24 25 26 27 28 29 30 31 32 33 34 35 36 37 38 39 40 41 42 43 44 45 46 47 48 49 50
000
AXUS43 KLBF 241010
MISLBF


WESTERN AND NORTH CENTRAL NEBRASKA HOURLY WEATHER ROUNDUP
NATIONAL WEATHER SERVICE NORTH PLATTE NE
500 AM CDT FRI APR 24 2015

***STATIONS NOT REPORTING VARIABLES SUCH AS SKY/WEATHER OR
PRESSURE ARE PROVIDED BY THE NEBRASKA DEPARTMENT OF
ROADS...RAWS...AND APRS NETWORKS...AND ARE NOT UNDER
NATIONAL WEATHER SERVICE QUALITY CONTROL***

...OBSERVATIONS IN AND NEAR THE EASTERN PANHANDLE OF NEBRASKA...

CITY           SKY/WX    TMP DP  RH WIND       PRES   REMARKS
PINE RIDGE     PTCLDY    42  37  82 SW8       29.64R
CHADRON        PTCLDY    44  38  79 MISG      29.64R
ALLIANCE       MOCLDY    46  41  82 SW9       29.66F
SIDNEY         CLOUDY    47  45  93 SE10      29.71F
WHITECLAY        N/A     44  37  75 S6          N/A
CRESCENT LAKE    N/A     51  46  83 S6G17       N/A
BIG SPRINGS      N/A     51  49  92 S12         N/A
$$

...OBSERVATIONS IN NORTH CENTRAL NEBRASKA...

CITY           SKY/WX    TMP DP  RH WIND       PRES   REMARKS
VALENTINE      PTCLDY    50  43  77 S16       29.63F
THEDFORD       CLOUDY    53  47  82 S6        29.68F
AINSWORTH      MOCLDY    51  45  79 SW12G17   29.66S
O`NEILL        CLOUDY    53  46  75 S8        29.70F
ORD            CLOUDY    53  44  71 SE8       29.68F
BROKEN BOW     CLOUDY    52  47  83 SE5       29.68F
BROWNLEE         N/A     51  46  83 S10         N/A
VALENTINE NWR    N/A     48  45  90 S7G14       N/A
SPRINGVIEW       N/A     53  45  75 CALM        N/A
BREWSTER         N/A     47  45  91 S3          N/A
ROSE             N/A     51  48  89 E8          N/A
NEWPORT          N/A     53  47  79 S12         N/A
SARGENT          N/A     51  47  85 CALM        N/A
COMSTOCK         N/A     53  48  86 CALM        N/A
EWING            N/A     52  44  75 S8          N/A
$$

...OBSERVATIONS IN SOUTHWEST NEBRASKA AND FAR NORTHEAST COLORADO...

CITY           SKY/WX    TMP DP  RH WIND       PRES   REMARKS
WRAY           CLOUDY   N/A N/A N/A CALM      29.75R
HOLYOKE        CLOUDY    54  52  94 SE7       29.74F FOG
IMPERIAL       MOCLDY    49  48  97 CALM      29.75R FOG
OGALLALA       MOCLDY    50  49  95 S15G21    29.69F
MCCOOK         PTCLDY    51  49  92 S3        29.71S
LEXINGTON      CLOUDY    51  47  83 SW7       29.68S
PAXTON           N/A     51  48  91 S7          N/A
SUTHERLAND       N/A     49  46  91 SW16        N/A
BRADY            N/A     50  47  90 CALM        N/A
GOTHENBURG       N/A     53  47  80 CALM        N/A
CALLAWAY         N/A     51  48  91 SE6         N/A
$$

...NORTH PLATTE AREA...

CITY           SKY/WX    TMP DP  RH WIND       PRES   REMARKS
DOWNTOWN         N/A     53  49  87 SW3         N/A
$$

...SOME WEATHER OBSERVATIONS FROM AROUND THE REGION...

CITY           SKY/WX    TMP DP  RH WIND       PRES   REMARKS
DENVER         PTCLDY    44  31  60 VRB6      29.76S
LARAMIE        MOCLDY    36  28  73 W13       29.79F WCI  27
CHEYENNE       MOCLDY    41  29  62 W8        29.76F
SCOTTSBLUFF    PTCLDY    44  32  62 N3        29.68F
RAPID CITY     PTCLDY    44  40  85 CALM      29.60R
PIERRE         CLOUDY    52  42  69 SE10      29.55F
WINNER         FAIR      55  43  63 S18G26    29.60F
SIOUX FALLS    CLOUDY    54  34  46 S14       29.75F
OMAHA          CLOUDY    57  37  47 S18       29.80F
GRAND ISLAND   CLOUDY    50  43  77 SE8       29.70F
KANSAS CITY    CLOUDY    57  38  48 S12       29.87F
WICHITA        CLOUDY    58  53  84 SE18      29.80F
HAYS           MOCLDY    54  46  76 S22       29.72F
LIBERAL        CLOUDY    55  50  82 S5        29.71F
GOODLAND       CLOUDY    53  52  96 S20       29.72R FOG
$$



USA.gov is the U.S. government's official web portal to all federal, state and local government web resources and services.